Total_Precipitation_Accumulation
0.12 0.32 0.49 0.41 0.33 0.28 0.23 0.20 0.15 0.10 0.11 0.08 0.08 0.08 0.09 0.10 0.12 0.10 0.08 0.08 0.06 0.04 0.02 0.01 0.01 0.01 0.05 0.15 0.25 0.39 0.70 1.05 1.15 0.96 0.80 0.73 0.68 0.56 0.45 0.41 0.46 0.52 0.49 0.43
0.07 0.17 0.18 0.14 0.16 0.20 0.23 0.24 0.21 0.15 0.11 0.08 0.06 0.05 0.05 0.06 0.08 0.09 0.08 0.08 0.07 0.04 0.02 0.01 0.01 0.03 0.07 0.21 0.35 0.49 0.70 1.05 1.13 1.06 0.99 0.93 0.89 0.75 0.64 0.63 0.61 0.65 0.62 0.66
0.04 0.05 0.05 0.09 0.16 0.24 0.27 0.28 0.25 0.19 0.12 0.09 0.05 0.03 0.02 0.03 0.03 0.04 0.05 0.06 0.06 0.04 0.02 0.02 0.02 0.03 0.06 0.15 0.26 0.41 0.56 0.75 0.88 0.93 0.95 1.00 0.99 0.93 0.90 0.87 0.81 0.79 0.77 0.82
0.02 0.02 0.04 0.07 0.10 0.14 0.21 0.15 0.11 0.09 0.09 0.08 0.06 0.06 0.02 0.01 0.02 0.02 0.03 0.04 0.05 0.04 0.03 0.03 0.03 0.03 0.04 0.08 0.15 0.27 0.42 0.58 0.64 0.67 0.75 0.91 0.99 0.98 0.94 0.89 0.86 0.88 0.89 0.92
0.00 0.01 0.02 0.04 0.06 0.09 0.10 0.06 0.06 0.07 0.07 0.07 0.06 0.06 0.02 0.01 0.01 0.02 0.02 0.03 0.04 0.04 0.04 0.04 0.04 0.05 0.06 0.07 0.10 0.17 0.28 0.37 0.48 0.51 0.55 0.67 0.71 0.76 0.85 0.77 0.75 0.86 0.92 0.95
0.00 0.00 0.00 0.01 0.02 0.04 0.05 0.05 0.05 0.05 0.06 0.06 0.04 0.05 0.03 0.01 0.02 0.02 0.02 0.02 0.03 0.04 0.06 0.08 0.08 0.11 0.13 0.13 0.15 0.20 0.24 0.27 0.31 0.31 0.32 0.35 0.41 0.53 0.83 0.88 0.86 1.00 1.05 0.96
0.00 0.00 0.00 0.00 0.01 0.02 0.03 0.07 0.10 0.10 0.10 0.06 0.03 0.05 0.04 0.03 0.03 0.03 0.03 0.03 0.04 0.07 0.09 0.13 0.15 0.17 0.17 0.16 0.18 0.21 0.25 0.27 0.25 0.22 0.20 0.21 0.27 0.32 0.61 0.86 0.84 0.81 0.89 0.90
0.00 0.00 0.00 0.00 0.01 0.03 0.04 0.08 0.14 0.15 0.12 0.09 0.06 0.08 0.06 0.04 0.04 0.04 0.05 0.06 0.08 0.10 0.14 0.19 0.26 0.27 0.26 0.25 0.22 0.21 0.22 0.25 0.23 0.18 0.13 0.15 0.19 0.20 0.27 0.43 0.52 0.55 0.58 0.68
0.01 0.01 0.00 0.00 0.01 0.03 0.06 0.09 0.11 0.15 0.11 0.09 0.08 0.10 0.09 0.05 0.07 0.08 0.08 0.11 0.15 0.19 0.26 0.33 0.38 0.38 0.35 0.32 0.25 0.22 0.23 0.26 0.25 0.22 0.20 0.17 0.17 0.21 0.27 0.28 0.35 0.51 0.53 0.52
0.04 0.02 0.01 0.01 0.01 0.03 0.05 0.08 0.13 0.22 0.23 0.18 0.15 0.20 0.21 0.15 0.14 0.15 0.16 0.19 0.26 0.32 0.37 0.43 0.48 0.46 0.41 0.32 0.23 0.19 0.18 0.23 0.34 0.45 0.40 0.32 0.30 0.34 0.55 0.59 0.40 0.40 0.49 0.49
0.17 0.12 0.04 0.04 0.05 0.09 0.13 0.19 0.23 0.29 0.29 0.33 0.38 0.41 0.34 0.29 0.27 0.28 0.29 0.30 0.37 0.44 0.46 0.49 0.51 0.52 0.47 0.34 0.22 0.18 0.16 0.20 0.25 0.28 0.28 0.29 0.37 0.45 0.65 0.84 0.74 0.51 0.42 0.41
0.22 0.28 0.15 0.09 0.13 0.16 0.22 0.32 0.45 0.61 0.57 0.50 0.55 0.53 0.40 0.30 0.30 0.31 0.32 0.28 0.30 0.36 0.39 0.44 0.46 0.43 0.38 0.28 0.19 0.15 0.14 0.18 0.24 0.23 0.21 0.22 0.29 0.40 0.45 0.47 0.51 0.41 0.27 0.21
0.33 0.46 0.37 0.26 0.32 0.32 0.40 0.43 0.49 0.59 0.64 0.61 0.61 0.55 0.38 0.27 0.22 0.23 0.26 0.27 0.24 0.21 0.23 0.26 0.27 0.27 0.23 0.19 0.18 0.15 0.16 0.17 0.21 0.25 0.27 0.25 0.24 0.26 0.24 0.20 0.17 0.18 0.17 0.13
0.33 0.42 0.47 0.46 0.52 0.57 0.57 0.48 0.43 0.56 0.70 0.60 0.53 0.48 0.38 0.31 0.23 0.22 0.22 0.22 0.20 0.16 0.16 0.18 0.20 0.21 0.21 0.20 0.18 0.16 0.16 0.22 0.29 0.42 0.46 0.42 0.39 0.31 0.26 0.22 0.18 0.15 0.12 0.12
0.22 0.25 0.25 0.24 0.26 0.37 0.41 0.35 0.35 0.41 0.44 0.52 0.48 0.45 0.33 0.27 0.26 0.30 0.27 0.21 0.18 0.18 0.17 0.16 0.16 0.19 0.19 0.19 0.18 0.16 0.17 0.25 0.33 0.45 0.54 0.53 0.51 0.46 0.40 0.31 0.23 0.20 0.17 0.16
0.15 0.19 0.18 0.16 0.17 0.25 0.31 0.32 0.33 0.32 0.35 0.42 0.47 0.44 0.29 0.22 0.21 0.23 0.24 0.22 0.21 0.20 0.16 0.16 0.17 0.18 0.18 0.18 0.18 0.19 0.23 0.32 0.39 0.44 0.53 0.66 0.67 0.55 0.46 0.37 0.30 0.27 0.26 0.23
0.13 0.23 0.30 0.24 0.21 0.23 0.47 0.50 0.50 0.51 0.44 0.41 0.34 0.24 0.14 0.12 0.14 0.16 0.17 0.19 0.22 0.20 0.17 0.16 0.16 0.17 0.18 0.20 0.22 0.24 0.29 0.37 0.38 0.41 0.51 0.69 0.68 0.55 0.47 0.47 0.45 0.39 0.37 0.35
0.10 0.22 0.32 0.26 0.29 0.57 0.81 0.60 0.57 0.52 0.30 0.16 0.09 0.08 0.08 0.12 0.12 0.11 0.12 0.15 0.18 0.17 0.14 0.12 0.11 0.12 0.13 0.16 0.20 0.23 0.26 0.29 0.31 0.35 0.42 0.53 0.54 0.50 0.51 0.51 0.48 0.42 0.37 0.36
0.12 0.23 0.33 0.29 0.33 0.59 0.64 0.41 0.33 0.32 0.19 0.05 0.04 0.05 0.08 0.10 0.08 0.05 0.06 0.09 0.10 0.09 0.07 0.06 0.05 0.05 0.05 0.05 0.07 0.10 0.12 0.15 0.19 0.25 0.31 0.39 0.41 0.44 0.45 0.44 0.45 0.42 0.37 0.37
0.25 0.30 0.43 0.44 0.54 0.57 0.31 0.16 0.15 0.21 0.24 0.05 0.03 0.03 0.03 0.04 0.04 0.03 0.03 0.04 0.04 0.04 0.03 0.02 0.01 0.01 0.01 0.01 0.01 0.03 0.05 0.08 0.12 0.17 0.23 0.29 0.32 0.36 0.39 0.43 0.45 0.44 0.41 0.37
0.22 0.30 0.38 0.46 0.65 0.54 0.21 0.11 0.11 0.20 0.26 0.08 0.03 0.02 0.01 0.02 0.02 0.02 0.02 0.03 0.03 0.02 0.01 0.01 0.00 0.00 0.00 0.00 0.00 0.02 0.05 0.07 0.07 0.09 0.14 0.20 0.27 0.35 0.43 0.48 0.48 0.49 0.46 0.41
0.24 0.26 0.28 0.38 0.54 0.49 0.20 0.15 0.18 0.17 0.08 0.03 0.02 0.01 0.00 0.01 0.00 0.00 0.01 0.01 0.02 0.01 0.01 0.00 0.00 0.00 0.00 0.00 0.00 0.00 0.02 0.03 0.03 0.05 0.10 0.16 0.25 0.32 0.40 0.48 0.50 0.50 0.49 0.48
0.27 0.30 0.32 0.43 0.57 0.38 0.23 0.20 0.19 0.12 0.06 0.02 0.01 0.00 0.00 0.00 0.00 0.00 0.01 0.01 0.01 0.01 0.00 0.00 0.00 0.00 0.00 0.00 0.00 0.00 0.00 0.00 0.00 0.02 0.05 0.10 0.14 0.19 0.23 0.29 0.37 0.44 0.48 0.48
0.15 0.17 0.23 0.32 0.32 0.20 0.18 0.16 0.12 0.07 0.04 0.02 0.01 0.00 0.00 0.00 0.00 0.00 0.00 0.01 0.01 0.01 0.00 0.00 0.00 0.00 0.00 0.00 0.00 0.00 0.00 0.00 0.00 0.01 0.02 0.04 0.05 0.06 0.09 0.18 0.26 0.33 0.40 0.44
0.10 0.13 0.18 0.25 0.25 0.15 0.10 0.10 0.07 0.04 0.02 0.01 0.01 0.00 0.00 0.00 0.00 0.00 0.00 0.00 0.00 0.01 0.01 0.00 0.00 0.00 0.00 0.00 0.00 0.00 0.00 0.00 0.01 0.01 0.01 0.02 0.03 0.04 0.07 0.13 0.22 0.26 0.34 0.35
0.07 0.11 0.17 0.24 0.23 0.17 0.08 0.07 0.05 0.03 0.02 0.01 0.01 0.00 0.00 0.00 0.00 0.00 0.00 0.00 0.00 0.01 0.01 0.01 0.01 0.01 0.00 0.00 0.00 0.01 0.03 0.01 0.04 0.06 0.03 0.02 0.02 0.05 0.07 0.09 0.11 0.12 0.15 0.15